Visibility
15.0 15.0 15.0 15.0 15.0 15.0 15.0 15.0 15.0 15.0 15.0 15.0 15.0 15.0 12.5 15.0 5.7 2.1 2.4 15.0 15.0 15.0 15.0 15.0 15.0 15.0 15.0 15.0 13.1 15.0 15.0 15.0 15.0 15.0 15.0 15.0 15.0 15.0
15.0 15.0 15.0 15.0 15.0 15.0 15.0 15.0 15.0 15.0 15.0 15.0 15.0 15.0 15.0 8.8 6.9 2.9 2.8 2.0 15.0 15.0 15.0 15.0 15.0 15.0 15.0 15.0 15.0 15.0 15.0 15.0 15.0 15.0 15.0 15.0 15.0 15.0
15.0 15.0 15.0 15.0 15.0 15.0 15.0 15.0 15.0 15.0 15.0 15.0 15.0 15.0 15.0 12.6 6.0 2.4 4.1 2.0 3.2 7.0 15.0 15.0 15.0 15.0 15.0 15.0 14.4 15.0 15.0 15.0 15.0 15.0 15.0 15.0 15.0 15.0
15.0 15.0 15.0 15.0 15.0 15.0 15.0 15.0 15.0 15.0 15.0 15.0 15.0 15.0 15.0 15.0 15.0 14.8 4.5 0.8 2.5 4.1 3.1 15.0 15.0 15.0 15.0 15.0 15.0 15.0 15.0 15.0 15.0 15.0 15.0 15.0 15.0 15.0
15.0 15.0 15.0 15.0 15.0 15.0 15.0 15.0 15.0 15.0 15.0 15.0 15.0 15.0 15.0 15.0 0.6 5.9 0.4 0.1 0.6 2.4 0.9 0.3 15.0 15.0 15.0 13.7 15.0 15.0 15.0 15.0 15.0 15.0 15.0 15.0 15.0 15.0
15.0 15.0 15.0 15.0 15.0 15.0 15.0 15.0 15.0 15.0 15.0 15.0 15.0 15.0 15.0 15.0 14.7 0.9 0.1 0.3 0.1 0.3 1.0 1.7 4.6 15.0 15.0 10.2 12.7 15.0 15.0 15.0 15.0 15.0 15.0 15.0 15.0 15.0
11.4 9.6 14.2 15.0 15.0 15.0 10.0 6.5 15.0 15.0 15.0 15.0 15.0 15.0 15.0 15.0 11.5 14.4 15.0 0.2 0.1 0.9 0.2 0.2 1.3 5.0 3.5 6.8 14.7 14.5 13.1 15.0 15.0 10.1 9.4 12.6 15.0 15.0
5.0 14.9 15.0 15.0 15.0 15.0 15.0 15.0 14.8 12.2 9.7 14.0 15.0 15.0 15.0 15.0 15.0 15.0 0.4 0.2 0.1 0.2 0.2 0.1 2.1 1.1 5.4 4.4 4.3 5.2 4.3 14.9 5.2 5.0 8.4 14.1 15.0 15.0
5.6 4.1 9.3 15.0 15.0 11.2 12.4 15.0 15.0 15.0 15.0 15.0 6.6 13.9 15.0 15.0 15.0 15.0 1.9 15.0 15.0 0.1 15.0 0.5 0.3 0.1 3.4 2.8 4.3 4.8 7.2 4.3 4.2 5.2 8.8 15.0 15.0 15.0
4.0 4.7 6.6 11.0 11.0 13.5 12.8 2.4 2.9 7.0 13.0 15.0 15.0 15.0 15.0 15.0 15.0 13.8 15.0 15.0 7.0 6.5 5.7 1.8 0.1 0.1 0.4 0.1 1.9 2.3 2.6 4.5 4.6 5.9 14.6 15.0 15.0 15.0
9.0 5.9 10.0 5.5 6.0 14.3 3.8 2.8 4.0 2.5 14.3 15.0 15.0 15.0 15.0 15.0 1.2 5.9 0.1 0.2 0.1 2.0 0.3 0.3 0.1 0.1 0.1 0.0 0.0 0.0 0.1 5.8 6.8 14.9 15.0 15.0 15.0 15.0
10.3 15.0 14.8 10.9 15.0 15.0 3.3 2.1 1.7 6.2 3.1 1.8 0.0 6.3 15.0 15.0 15.0 7.4 15.0 0.3 11.8 0.9 3.1 2.1 0.1 0.2 0.1 0.1 0.0 0.0 0.2 3.4 12.2 15.0 15.0 15.0 15.0 15.0
6.0 4.7 3.7 14.3 11.8 12.9 5.3 2.0 3.7 15.0 15.0 2.5 4.8 13.0 15.0 15.0 15.0 15.0 13.3 15.0 15.0 15.0 15.0 14.4 0.2 0.4 14.4 0.1 0.1 0.1 0.1 0.3 5.9 13.7 15.0 15.0 15.0 14.3
1.2 3.7 2.2 9.4 0.3 0.0 0.1 0.1 7.9 13.5 6.6 0.2 1.6 2.1 5.0 15.0 15.0 15.0 11.3 11.9 15.0 15.0 15.0 15.0 15.0 15.0 5.2 0.2 0.2 0.1 0.1 0.1 0.9 8.9 15.0 3.4 3.8 14.9
3.3 4.7 15.0 12.7 1.1 0.1 0.0 0.1 0.3 2.2 1.5 2.6 0.1 2.5 11.2 15.0 15.0 14.3 1.0 6.4 0.3 6.2 15.0 15.0 15.0 3.9 0.5 0.5 0.2 0.1 0.1 0.2 1.7 2.4 15.0 15.0 8.0 4.4
1.6 3.6 0.5 0.1 0.1 0.0 0.0 0.1 0.1 0.2 1.5 2.1 5.7 2.6 1.3 0.1 1.7 15.0 7.5 0.3 0.1 0.1 0.1 0.1 0.1 4.4 0.2 0.2 6.6 0.1 0.2 0.2 0.3 0.3 1.2 1.5 1.8 13.6
0.7 0.2 0.4 0.5 0.9 2.1 0.0 1.3 2.2 1.6 0.2 0.7 0.0 2.0 15.0 6.8 10.6 0.1 11.8 14.2 7.6 0.2 0.1 0.1 0.1 0.2 0.4 0.8 0.1 0.4 0.2 0.2 0.7 1.2 2.8 15.0 9.6 4.6
0.9 0.3 0.2 0.2 0.9 1.4 0.2 0.1 0.1 0.6 1.3 0.0 2.4 8.7 15.0 11.0 0.2 0.2 0.1 6.0 2.8 0.2 0.2 0.3 1.7 1.5 10.0 0.7 6.4 1.4 10.8 15.0 15.0 15.0 15.0 14.9 13.2 15.0
4.2 1.3 0.4 0.5 0.6 0.5 0.4 0.2 0.2 0.2 0.2 0.3 1.2 0.7 0.7 3.5 0.7 0.4 0.2 0.2 0.1 0.2 0.4 1.7 15.0 15.0 1.6 0.6 14.8 15.0 15.0 15.0 15.0 9.2 15.0 15.0 15.0 15.0
14.1 13.0 0.3 0.3 1.5 0.6 0.3 0.2 0.2 0.2 0.2 0.3 0.2 0.2 0.2 0.4 0.2 0.4 0.3 0.3 0.4 0.3 0.2 0.4 1.6 12.7 15.0 15.0 15.0 15.0 15.0 14.9 10.1 15.0 15.0 15.0 15.0 15.0
15.0 3.8 3.1 13.3 4.7 0.3 0.2 0.2 0.1 0.1 0.2 0.2 0.2 0.4 0.2 0.3 0.2 0.2 0.2 0.1 0.1 0.3 0.3 0.3 1.8 15.0 15.0 14.6 2.9 3.2 8.1 15.0 15.0 15.0 15.0 15.0 15.0 15.0
0.2 11.7 14.6 1.1 3.1 14.3 9.3 2.2 0.2 0.2 0.3 1.2 0.3 0.3 0.2 0.2 0.1 0.1 0.1 0.2 0.5 4.7 14.9 15.0 15.0 15.0 15.0 15.0 13.3 6.0 14.5 15.0 15.0 15.0 15.0 15.0 12.3 15.0
0.4 0.3 0.3 8.2 15.0 15.0 15.0 9.9 6.9 9.3 14.9 7.2 1.2 0.7 0.2 0.2 0.2 0.4 0.4 1.2 7.2 15.0 15.0 15.0 15.0 15.0 15.0 15.0 15.0 15.0 15.0 15.0 15.0 15.0 15.0 15.0 15.0 15.0